Cheyenne, WY

11:58 AM MDT on May 21, 2018 (GMT -0600)
Cheyenne

Weather History for KCYS - November, 2013

Change the Weather History Date:

Friday, November 15, 2013

  Actual Average Record
Temperature  
Mean Temperature 44 °F 36 °F  
Max Temperature 58 °F 47 °F 75 °F (1999)
Min Temperature 30 °F 24 °F -7 °F (1872)
Degree Days  
Heating Degree Days 21 29  
Month to date heating degree days 374 397  
Since 1 July heating degree days 1232 1256  
Cooling Degree Days 0 0  
Month to date cooling degree days 0 0  
Year to date cooling degree days 520 348  
Moisture  
Dew Point 21 °F    
Average Humidity 51    
Maximum Humidity 85    
Minimum Humidity 17    
Precipitation  
Precipitation 0.00 in 0.02 in 0.33 in (1996)
Month to date precipitation 0.03 0.30  
Year to date precipitation 17.55 15.16  
Snow  
Snow 0.00 in 0.30 in 4.10 in (1996)
Month to date snowfall 0.2 3.7  
Since 1 July snowfall 12.7 10.0  
Snow Depth 0.00 in    
Sea Level Pressure  
Sea Level Pressure 29.51 in    
Wind  
Wind Speed 13 mph (WSW)    
Max Wind Speed 29 mph    
Max Gust Speed 36 mph    
Visibility 10 miles    
Events      
T = Trace of Precipitation, MM = Missing Value Source: NWS Daily Summary

Daily Weather History Graph

Daily Weather History Graph

Search for Another Location

Airport or City:

Astronomy

Nov. 15, 2013 Rise Set
Actual Time 6:47 AM MST 4:39 PM MST
Civil Twilight 6:17 AM MST 5:09 PM MST
Nautical Twilight 5:44 AM MST 5:42 PM MST
Astronomical Twilight 5:11 AM MST 6:15 PM MST
Moon 3:39 PM MST (11/15) 4:45 AM MST (11/15)
Length of Visible Light 10h 51m
Length of Day
9h 52m
Waxing Gibbous, 97% of the Moon is Illuminated
Nov 15
Waxing Gibbous
Nov 17
Full
Nov 25
Last Quarter
Dec 2
New
Dec 9
First Quarter

Hourly Weather History & Observations

Time (MST) Temp. Windchill Dew Point Humidity Pressure Visibility Wind Dir Wind Speed Gust Speed Precip Events Conditions
12:53 AM 33.1 °F 27.7 °F 27.0 °F 78% 29.67 in 10.0 mi West 5.8 mph - N/A   Clear
1:53 AM 30.9 °F 22.8 °F 26.1 °F 82% 29.66 in 10.0 mi West 9.2 mph - N/A   Clear
2:53 AM 32.0 °F 23.6 °F 26.1 °F 79% 29.64 in 10.0 mi West 10.4 mph - N/A   Clear
3:53 AM 36.0 °F 29.6 °F 24.1 °F 62% 29.63 in 10.0 mi West 8.1 mph - N/A   Clear
4:53 AM 37.0 °F 32.4 °F 21.0 °F 52% 29.63 in 10.0 mi SSW 5.8 mph - N/A   Clear
5:53 AM 37.0 °F 29.3 °F 19.0 °F 48% 29.62 in 10.0 mi SW 11.5 mph - N/A   Clear
6:53 AM 41.0 °F 34.3 °F 14.0 °F 33% 29.61 in 10.0 mi West 11.5 mph - N/A   Clear
7:53 AM 46.0 °F 40.6 °F 16.0 °F 30% 29.61 in 10.0 mi West 11.5 mph - N/A   Clear
8:53 AM 48.9 °F - 16.0 °F 27% 29.58 in 10.0 mi West 10.4 mph - N/A   Clear
9:53 AM 52.0 °F - 16.0 °F 24% 29.55 in 10.0 mi WSW 9.2 mph - N/A   Clear
10:53 AM 55.0 °F - 15.1 °F 21% 29.53 in 10.0 mi SSW 16.1 mph - N/A   Clear
11:53 AM 55.9 °F - 16.0 °F 21% 29.48 in 10.0 mi SW 15.0 mph - N/A   Clear
12:53 PM 57.0 °F - 12.0 °F 17% 29.45 in 10.0 mi WSW 21.9 mph 34.5 mph N/A   Clear
1:53 PM 57.0 °F - 12.0 °F 17% 29.44 in 10.0 mi West 19.6 mph 29.9 mph N/A   Clear
2:53 PM 53.1 °F - 15.1 °F 22% 29.44 in 10.0 mi WSW 11.5 mph - N/A   Partly Cloudy
3:53 PM 51.1 °F - 17.1 °F 26% 29.43 in 10.0 mi West 21.9 mph 26.5 mph N/A   Clear
4:53 PM 46.0 °F 40.6 °F 23.0 °F 40% 29.44 in 10.0 mi WNW 11.5 mph - N/A   Partly Cloudy
5:53 PM 42.1 °F 34.9 °F 24.1 °F 49% 29.48 in 10.0 mi West 13.8 mph - N/A   Clear
6:53 PM 39.0 °F 30.3 °F 30.0 °F 70% 29.49 in 10.0 mi West 16.1 mph - N/A   Clear
7:53 PM 39.9 °F 31.1 °F 28.9 °F 65% 29.43 in 10.0 mi West 17.3 mph - N/A   Mostly Cloudy
8:53 PM 39.0 °F 32.3 °F 25.0 °F 57% 29.42 in 10.0 mi SW 10.4 mph - N/A   Scattered Clouds
9:53 PM 37.0 °F 29.8 °F 24.1 °F 59% 29.41 in 10.0 mi West 10.4 mph - N/A   Partly Cloudy
10:53 PM 36.0 °F 26.7 °F 25.0 °F 64% 29.38 in 10.0 mi West 15.0 mph - N/A   Clear
11:53 PM 35.1 °F 25.9 °F 24.1 °F 64% 29.38 in 10.0 mi West 13.8 mph - N/A   Clear